Overview Statistics Trail Chart Weather Telemetry Raw packets
 

This is the latest recevied weather packets stored in our database for station/object KE8DDT-7. If no packets are shown the sender has not sent any weather packets the latest 10 day(s).

<< 1 2 3 4 5 >>
Time Temp. Humidity Pressure Rain* Wind** Luminosity Snow
1788463063 28.33° C 75% 1004.4 hPa 0 mm - 14 W/m² -
1788462763 28.89° C 74% 1004.8 hPa 0 mm - 49 W/m² -
1788462163 29.44° C 72% 1004.9 hPa 0 mm - 267 W/m² -
1788461863 29.44° C 71% 1005.4 hPa 0 mm - 318 W/m² -
1788461108 29.44° C 72% 1005.7 hPa 0 mm - 837 W/m² -
1788460808 29.44° C 71% 1005.9 hPa 0 mm - 534 W/m² -
1788460508 29.44° C 70% 1005.9 hPa 0 mm - 415 W/m² -
1788460208 29.44° C 70% 1006 hPa 0 mm - 466 W/m² -
1788459608 30° C 69% 1006.1 hPa 0 mm - 218 W/m² -
1788459008 29.44° C 69% 1006.1 hPa 0 mm - 898 W/m² -
1788458408 28.89° C 72% 1006.1 hPa 0 mm - 800 W/m² -
1788458108 28.89° C 71% 1006 hPa 0 mm - 824 W/m² -
1788457808 28.33° C 72% 1006 hPa 0 mm - 779 W/m² -
1788457508 28.33° C 73% 1006 hPa 0 mm - 972 W/m² -
1788457208 27.78° C 74% 1006 hPa 0 mm - 905 W/m² -
1788456908 27.22° C 74% 1006.2 hPa 0 mm - 378 W/m² -
1788456608 27.22° C 73% 1006.2 hPa 0 mm - 457 W/m² -
1788456008 26.67° C 75% 1006.4 hPa 0 mm - 408 W/m² -
1788455708 27.22° C 75% 1006.3 hPa 0 mm - 283 W/m² -
1788455408 26.67° C 75% 1006.3 hPa 0 mm - 325 W/m² -
1788455108 26.67° C 74% 1006.2 hPa 0 mm - 334 W/m² -
1788454808 26.67° C 75% 1006.2 hPa 0 mm - 701 W/m² -
1788454208 26.11° C 74% 1006 hPa 0 mm - 522 W/m² -
1788453908 26.11° C 74% 1006.1 hPa 0 mm - 341 W/m² -
1788453608 26.11° C 74% 1006.2 hPa 0 mm - 476 W/m² -

* Rain latest hour (hover to see other rain measurements)
** Current wind speed in m/s (hover to see current wind gust speed)